Location: Homewood
(41.1836°S, 175.9581°E)
Time: 16:47:15
(UTC+00:00)

COSMOS 2251 DEB - Visible Passes

Search period start: 08 September 2024 00:00
Search period end: 18 September 2024 00:00
Orbit: 622 x 638 km, 74.0° (Epoch: 07 September)

Date Brightness Start Highest point End Pass type
(mag) Time Alt. Az. Time Alt. Az. Time Alt. Az.
08 Sep ? 17:57:05 10° N 18:01:18 37° ENE 18:05:32 10° SE visible
10 Sep ? 17:00:49 10° NE 17:03:41 17° E 17:06:35 10° ESE visible
11 Sep ? 17:19:34 10° NNE 17:23:42 35° ENE 17:27:52 10° SE visible
12 Sep ? 17:39:08 10° NNW 17:43:40 76° ENE 17:48:16 10° SSE visible
13 Sep ? 16:22:27 10° NE 16:25:04 15° E 16:27:42 10° ESE visible
14 Sep ? 16:40:31 10° NNE 16:44:31 31° ENE 16:48:34 10° SE visible
15 Sep ? 16:59:27 10° N 17:03:56 68° ENE 17:08:29 10° SSE visible
16 Sep ? 15:42:42 10° NE 15:44:53 13° E 15:47:04 10° ESE visible
16 Sep ? 17:18:52 10° NNW 17:23:18 57° WSW 17:27:49 10° SSE visible
17 Sep ? 15:59:57 10° NNE 16:03:46 28° E 16:07:38 10° SE visible
17 Sep ? 17:38:45 10° WNW 17:42:39 28° WSW 17:46:36 10° S visible
